Home > Weather > Palembang > Past weeks

Flag for Indonesia Weather for the Past 2 Weeks in Palembang, South Sumatra, Indonesia

Now
82 °F

Partly sunny.


Feels Like: 91 °F
Forecast: 75 / 82 °F
Wind: 6 mph from Northwest

Location: Palembang / Talangbetutu

Current Time: Feb 7, 2016 at 11:44:17 AM

Latest Report: Feb 7, 2016 at 10:00 AM


Visibility: N/A

Pressure: 29.86 "Hg

Humidity: 84%

Dew point: 77 °F

Location of PalembangLocation

Historic Weather in Palembang — Graph

°F

Palembang Temperature Yesterday

Maximum temperature yesterday: 88 °F (at 1:00 PM)
Minimum temperature yesterday: 79 °F (at 4:00 AM)
Average temperature yesterday: 81 °F

High & Low Weather Summary for the Past Weeks

 TemperatureHumidityPressure
High93 °F (Jan 29, 2:30 PM)100% (Jan 24, 12:00 AM)29.95 "Hg (Jan 24, 12:00 AM)
Low75 °F (Jan 26, 5:30 AM)49% (Feb 3, 4:30 PM)29.68 "Hg (Feb 5, 3:00 PM)
Average83 °F83%29.83 "Hg
* Reported Jan 23 10:00 AM — Feb 7 10:00 AM, Palembang, Weather by CustomWeather, © 2016

Note: Actual official high and low records may vary slightly from our data, if they occured in-between our weather recording intervals... More about our weather records

Advertising

Palembang Weather History for the Previous 24 Hours

 ConditionsComfort  
Time TempWeatherWind HumidityBarometerVisibility
10:00 AM
Sun, Feb 7
82 °FPartly sunny.6 mph84%29.86 "HgN/A
9:30 AM82 °FScattered clouds.7 mph84%29.86 "HgN/A
9:00 AM81 °FPartly sunny.5 mph89%29.86 "HgN/A
8:30 AM79 °FPartly sunny.3 mph94%29.86 "Hg4 mi
8:00 AM79 °FPartly sunny.3 mph94%29.86 "HgN/A
7:00 AM77 °FFog.2 mph94%29.80 "Hg2 mi
6:30 AM75 °FFog.2 mph100%29.80 "Hg1 mi
6:00 AM75 °FFog.2 mph100%29.80 "Hg1 mi
5:30 AM77 °FFog.No wind94%29.80 "Hg1 mi
5:00 AM77 °FFog.No wind94%29.77 "Hg1 mi
10:00 PM
Sat, Feb 6
79 °FHaze.3 mph94%29.83 "Hg3 mi
9:30 PM79 °FPassing clouds.5 mph94%29.83 "HgN/A
9:00 PM79 °FPassing clouds.5 mph94%29.83 "HgN/A
8:30 PM79 °FLight rain. Passing clouds.2 mph94%29.83 "Hg4 mi
8:00 PM79 °FLight rain. Passing clouds.6 mph94%29.80 "Hg5 mi
7:30 PM79 °FLight rain. Passing clouds.3 mph94%29.80 "Hg3 mi
7:00 PM79 °FLight rain. Passing clouds.2 mph94%29.80 "Hg4 mi
6:30 PM79 °FLight rain. Passing clouds.No wind89%29.77 "Hg4 mi
6:00 PM79 °FPassing clouds.No wind94%29.77 "HgN/A
5:30 PM79 °FScattered clouds.2 mph94%29.77 "HgN/A
5:00 PM79 °FScattered clouds.No wind89%29.77 "HgN/A
4:30 PM79 °FScattered clouds.5 mph89%29.77 "HgN/A
4:00 PM79 °FLight rain. Partly sunny.5 mph94%29.74 "Hg3 mi
3:30 PM79 °FThundershowers. Partly sunny.8 mph94%29.74 "HgN/A
3:00 PM88 °FThundershowers. Partly sunny.8 mph70%29.74 "HgN/A
2:30 PM88 °FThundershowers. Partly sunny.8 mph70%29.74 "HgN/A
2:00 PM88 °FThundershowers. Partly sunny.5 mph70%29.74 "HgN/A
1:30 PM88 °FPartly sunny.9 mph70%29.77 "HgN/A
1:00 PM88 °FPartly sunny.9 mph70%29.77 "HgN/A
12:30 PM86 °FPartly sunny.9 mph75%29.80 "HgN/A
12:00 PM86 °FScattered clouds.6 mph75%29.80 "HgN/A
11:30 AM86 °FPartly sunny.3 mph75%29.80 "HgN/A
11:00 AM86 °FPartly sunny.3 mph75%29.83 "HgN/A
Weather by CustomWeather, © 2016

See weather overviewHow to use our weather pages